• In Hungary
  • List of Countries
  • For 7 days
  • Water Temperature
  • Satellite Maps
  • Weather Map
  • News
  • Weather Widgets
  • user-avatar
    Login

    Hourly Weather Mezhgornyy

    Today, 16 August, Thursday

    Time Temperature Precipitation Wind Pressure Humidity
    00:00 +18°C° 0 mm 2 mps 746 mmHg 65%
    01:00 +18°C° 0 mm 1 mps 746 mmHg 68%
    02:00 +18°C° 0 mm 1 mps 747 mmHg 70%
    03:00 +18°C° 0 mm 1 mps 747 mmHg 72%
    04:00 +16°C° 0 mm 1 mps 747 mmHg 74%
    05:00 +18°C° 0 mm 1 mps 747 mmHg 71%
    06:00 +19°C° 0 mm 1 mps 747 mmHg 68%
    07:00 +19°C° 0 mm 2 mps 748 mmHg 65%
    08:00 +20°C° 0 mm 2 mps 748 mmHg 59%
    09:00 +23°C° 0 mm 2 mps 748 mmHg 52%
    10:00 +24°C° 0 mm 3 mps 748 mmHg 45%
    11:00 +25°C° 0 mm 3 mps 748 mmHg 41%
    12:00 +26°C° 0 mm 3 mps 748 mmHg 38%
    13:00 +27°C° 0 mm 3 mps 747 mmHg 34%
    14:00 +27°C° 0 mm 3 mps 747 mmHg 33%
    15:00 +28°C° 0 mm 3 mps 747 mmHg 31%
    16:00 +29°C° 0 mm 2 mps 747 mmHg 28%
    17:00 +28°C° 0 mm 2 mps 746 mmHg 32%
    18:00 +27°C° 0 mm 1 mps 746 mmHg 35%
    19:00 +26°C° 0 mm 1 mps 746 mmHg 39%
    20:00 +25°C° 0 mm 1 mps 746 mmHg 39%
    21:00 +24°C° 0 mm 1 mps 746 mmHg 40%
    22:00 +22°C° 0 mm 1 mps 746 mmHg 41%
    23:00 +22°C° 0 mm 1 mps 746 mmHg 41%

    Tomorrow, 17 August, Friday

    Time Temperature Precipitation Wind Pressure Humidity
    00:00 +21°C° 0 mm 2 mps 746 mmHg 40%
    01:00 +21°C° 0 mm 2 mps 745 mmHg 40%
    02:00 +20°C° 0 mm 2 mps 745 mmHg 40%
    03:00 +20°C° 0 mm 2 mps 745 mmHg 41%
    04:00 +20°C° 0 mm 3 mps 745 mmHg 41%
    05:00 +20°C° 0 mm 3 mps 745 mmHg 40%
    06:00 +21°C° 0 mm 3 mps 745 mmHg 40%
    07:00 +22°C° 0 mm 3 mps 745 mmHg 40%
    08:00 +25°C° 0 mm 3 mps 745 mmHg 35%
    09:00 +27°C° 0 mm 4 mps 745 mmHg 30%
    10:00 +29°C° 0 mm 5 mps 745 mmHg 25%
    11:00 +30°C° 0 mm 5 mps 744 mmHg 24%
    12:00 +32°C° 0 mm 4 mps 744 mmHg 23%
    13:00 +33°C° 0 mm 4 mps 744 mmHg 22%
    14:00 +33°C° 0 mm 4 mps 743 mmHg 24%
    15:00 +33°C° 0 mm 4 mps 743 mmHg 25%
    16:00 +33°C° 0 mm 4 mps 743 mmHg 27%
    17:00 +30°C° 0 mm 5 mps 743 mmHg 38%
    18:00 +28°C° 0 mm 5 mps 743 mmHg 48%
    19:00 +26°C° 0 mm 5 mps 742 mmHg 59%
    20:00 +23°C° 0.4 mm 5 mps 743 mmHg 67%
    21:00 +21°C° 0.4 mm 5 mps 743 mmHg 74%
    22:00 +17°C° 0.4 mm 6 mps 743 mmHg 82%
    23:00 +17°C° 0.1 mm 6 mps 743 mmHg 81%

    Day after tomorrow, 18 August, Saturday

    Time Temperature Precipitation Wind Pressure Humidity
    00:00 +16°C° 0.1 mm 6 mps 743 mmHg 80%
    01:00 +15°C° 0.1 mm 6 mps 743 mmHg 79%
    02:00 +15°C° 0.1 mm 6 mps 743 mmHg 79%
    03:00 +15°C° 0.1 mm 5 mps 743 mmHg 79%
    04:00 +14°C° 0.1 mm 5 mps 743 mmHg 80%
    05:00 +14°C° 0.1 mm 6 mps 743 mmHg 79%
    06:00 +14°C° 0.1 mm 6 mps 743 mmHg 78%
    07:00 +14°C° 0.1 mm 6 mps 743 mmHg 77%
    08:00 +16°C° 0 mm 6 mps 743 mmHg 71%
    09:00 +17°C° 0 mm 6 mps 743 mmHg 66%
    10:00 +18°C° 0 mm 7 mps 743 mmHg 60%
    11:00 +20°C° 0 mm 7 mps 743 mmHg 55%
    12:00 +21°C° 0 mm 7 mps 743 mmHg 51%
    13:00 +22°C° 0 mm 7 mps 743 mmHg 47%
    14:00 +22°C° 0 mm 6 mps 743 mmHg 46%
    15:00 +22°C° 0 mm 6 mps 743 mmHg 45%
    16:00 +22°C° 0 mm 6 mps 743 mmHg 44%
    17:00 +22°C° 0 mm 6 mps 743 mmHg 46%
    18:00 +21°C° 0 mm 5 mps 743 mmHg 48%
    19:00 +20°C° 0 mm 5 mps 743 mmHg 51%
    20:00 +19°C° 0 mm 5 mps 744 mmHg 55%
    21:00 +17°C° 0 mm 5 mps 744 mmHg 60%
    22:00 +16°C° 0 mm 5 mps 744 mmHg 65%
    23:00 +15°C° 0 mm 4 mps 744 mmHg 67%

    19 August, Sunday

    Time Temperature Precipitation Wind Pressure Humidity
    00:00 +14°C° 0 mm 4 mps 744 mmHg 70%
    01:00 +14°C° 0 mm 3 mps 744 mmHg 73%
    02:00 +13°C° 0 mm 4 mps 744 mmHg 74%
    03:00 +13°C° 0 mm 4 mps 744 mmHg 75%
    04:00 +12°C° 0 mm 4 mps 744 mmHg 76%
    05:00 +13°C° 0 mm 4 mps 744 mmHg 72%
    06:00 +13°C° 0 mm 5 mps 744 mmHg 69%
    07:00 +14°C° 0 mm 6 mps 744 mmHg 65%
    08:00 +15°C° 0 mm 6 mps 745 mmHg 59%
    09:00 +17°C° 0 mm 6 mps 745 mmHg 52%
    10:00 +20°C° 0 mm 7 mps 745 mmHg 45%
    11:00 +21°C° 0 mm 7 mps 745 mmHg 42%
    12:00 +21°C° 0 mm 7 mps 744 mmHg 40%
    13:00 +22°C° 0 mm 6 mps 744 mmHg 37%
    14:00 +22°C° 0 mm 6 mps 744 mmHg 38%
    15:00 +22°C° 0 mm 6 mps 744 mmHg 39%
    16:00 +22°C° 0 mm 6 mps 744 mmHg 40%
    17:00 +21°C° 0 mm 6 mps 744 mmHg 44%
    18:00 +20°C° 0 mm 5 mps 744 mmHg 48%
    19:00 +19°C° 0 mm 5 mps 744 mmHg 52%
    20:00 +17°C° 0 mm 5 mps 745 mmHg 57%
    21:00 +16°C° 0 mm 5 mps 745 mmHg 61%
    22:00 +15°C° 0 mm 4 mps 745 mmHg 66%
    23:00 +14°C° 0 mm 4 mps 745 mmHg 68%

    20 August, Monday

    Time Temperature Precipitation Wind Pressure Humidity
    00:00 +13°C° 0 mm 4 mps 745 mmHg 70%
    01:00 +12°C° 0 mm 4 mps 745 mmHg 72%
    02:00 +12°C° 0 mm 4 mps 745 mmHg 74%
    03:00 +11°C° 0 mm 4 mps 745 mmHg 76%
    04:00 +11°C° 0 mm 4 mps 745 mmHg 78%
    05:00 +11°C° 0 mm 4 mps 746 mmHg 78%
    06:00 +10°C° 0 mm 5 mps 746 mmHg 77%
    07:00 +10°C° 0 mm 5 mps 746 mmHg 76%
    08:00 +13°C° 0 mm 5 mps 746 mmHg 69%
    09:00 +15°C° 0 mm 5 mps 746 mmHg 62%
    10:00 +16°C° 0 mm 5 mps 746 mmHg 55%
    11:00 +19°C° 0 mm 5 mps 746 mmHg 50%
    12:00 +20°C° 0 mm 5 mps 746 mmHg 45%
    13:00 +21°C° 0 mm 6 mps 746 mmHg 40%
    14:00 +21°C° 0 mm 5 mps 746 mmHg 40%
    15:00 +21°C° 0 mm 5 mps 746 mmHg 40%
    16:00 +21°C° 0 mm 5 mps 746 mmHg 40%
    17:00 +21°C° 0 mm 4 mps 746 mmHg 44%
    18:00 +20°C° 0 mm 4 mps 746 mmHg 47%
    19:00 +19°C° 0 mm 3 mps 746 mmHg 50%
    20:00 +18°C° 0 mm 3 mps 746 mmHg 55%
    21:00 +17°C° 0 mm 3 mps 747 mmHg 60%
    22:00 +16°C° 0 mm 3 mps 747 mmHg 65%
    23:00 +14°C° 0 mm 3 mps 747 mmHg 68%

    21 August, Tuesday

    Time Temperature Precipitation Wind Pressure Humidity
    00:00 +13°C° 0 mm 3 mps 747 mmHg 71%
    01:00 +13°C° 0 mm 3 mps 747 mmHg 75%
    02:00 +12°C° 0 mm 3 mps 747 mmHg 77%
    03:00 +12°C° 0 mm 3 mps 747 mmHg 80%
    04:00 +11°C° 0 mm 3 mps 747 mmHg 83%
    05:00 +12°C° 0 mm 3 mps 747 mmHg 80%
    06:00 +12°C° 0 mm 3 mps 747 mmHg 78%
    07:00 +13°C° 0 mm 3 mps 748 mmHg 75%
    08:00 +15°C° 0 mm 4 mps 748 mmHg 66%
    09:00 +18°C° 0 mm 4 mps 748 mmHg 57%
    10:00 +20°C° 0 mm 4 mps 748 mmHg 47%
    11:00 +21°C° 0 mm 4 mps 748 mmHg 43%
    12:00 +22°C° 0 mm 4 mps 748 mmHg 39%
    13:00 +23°C° 0 mm 5 mps 747 mmHg 35%
    14:00 +23°C° 0 mm 5 mps 747 mmHg 36%
    15:00 +25°C° 0 mm 5 mps 747 mmHg 36%
    16:00 +25°C° 0 mm 5 mps 747 mmHg 37%
    17:00 +23°C° 0 mm 4 mps 747 mmHg 42%
    18:00 +22°C° 0 mm 4 mps 747 mmHg 47%
    19:00 +21°C° 0 mm 3 mps 747 mmHg 52%
    20:00 +20°C° 0 mm 2 mps 747 mmHg 56%
    21:00 +19°C° 0 mm 2 mps 748 mmHg 60%
    22:00 +18°C° 0 mm 2 mps 748 mmHg 63%
    23:00 +17°C° 0 mm 2 mps 748 mmHg 66%
    Show more